Location: Dead Woman Crossing
(43.5369°N, 106.3228°W)
Time: 14:10:20
(UTC+00:00)

DUCHIFAT 1 - Visible Passes

Search period start: 25 June 2022 00:00
Search period end: 05 July 2022 00:00
Orbit: 579 x 598 km, 98.0° (Epoch: 25 June)

Date Brightness Start Highest point End Pass type
(mag) Time Alt. Az. Time Alt. Az. Time Alt. Az.
25 Jun ? 09:44:00 10° NNE 09:48:12 89° ESE 09:51:14 18° SSW visible
26 Jun ? 09:51:39 10° N 09:55:50 76° WNW 09:58:58 17° SSW visible
27 Jun ? 08:26:01 10° ENE 08:27:36 12° E 08:29:10 10° ESE visible
27 Jun ? 09:59:19 10° N 10:03:28 62° WNW 10:06:39 16° SSW visible
28 Jun ? 08:33:00 10° ENE 08:35:19 14° E 08:37:36 10° SE visible
28 Jun ? 10:07:00 10° N 10:11:04 51° WNW 10:14:22 15° SW visible
29 Jun ? 08:40:12 10° NE 08:43:00 17° E 08:45:32 11° SE visible
29 Jun ? 10:14:41 10° N 10:18:39 42° WNW 10:22:03 13° SW visible
30 Jun ? 08:47:30 10° NE 08:50:41 21° E 08:53:14 13° SE visible
30 Jun ? 10:22:24 10° N 10:26:14 35° WNW 10:29:45 12° SW visible
01 Jul ? 08:54:53 10° NE 08:58:21 25° E 09:00:55 15° SE visible
01 Jul ? 10:30:09 10° N 10:33:48 30° WNW 10:37:26 10° SW visible
02 Jul ? 09:02:19 10° NE 09:06:01 29° E 09:08:35 16° SSE visible
02 Jul ? 10:37:54 10° NNW 10:41:22 25° WNW 10:44:49 10° WSW visible
03 Jul ? 09:09:47 10° NNE 09:13:40 35° E 09:16:15 18° SSE visible
03 Jul ? 10:45:43 10° NNW 10:48:54 21° WNW 10:52:07 10° WSW visible
04 Jul ? 09:17:17 10° NNE 09:21:18 43° E 09:23:56 19° SSE visible
